Location: Newark
(54.4000°N, 32.4500°E)
Time: 21:07:46
(UTC+00:00)

Envisat - Pass Details

Date: 24 January 2020
Orbit: 764 x 766 km, 98.1° (Epoch: 23 February)

Event Time Altitude Azimuth Distance (km) Brightness Sun altitude
Rises 16:27:01 0° 195° (SSW) 3,224 6.5 -19.1°
Reaches altitude 10° 16:29:35 10° 206° (SSW) 2,302 5.9 -19.5°
Maximum altitude 16:34:01 30° 267° (W) 1,367 5.0 -20.1°
Drops below altitude 10° 16:38:28 10° 328° (NNW) 2,317 5.8 -20.7°
Sets 16:41:04 0° 339° (NNW) 3,248 6.5 -21.1°
